Location: Sagn�
(15.2046°N, 12.7898°W)
Time: 13:12:55
(UTC+00:00)

ASC 2 Rocket - Pass Details

Date: 08 May 2021
Orbit: 555 x 2345 km, 24.0° (Epoch: 14 June)

Event Time Altitude Azimuth Distance (km) Brightness Sun altitude
Rises 20:17:51 0° 290° (WNW) 4,231 9.2 -16.0°
Reaches altitude 10° 20:21:25 10° 296° (WNW) 2,953 7.9 -16.8°
Maximum altitude 20:27:55 44° 7° (N) 1,115 4.4 -18.2°
Enters shadow 20:30:40 23° 67° (ENE) 1,490 4.6 -18.8°
